TimePDT,TemperatureF,Dew PointF,Humidity,Sea Level PressureIn,VisibilityMPH,Wind Direction,Wind SpeedMPH,Gust SpeedMPH,PrecipitationIn,Events,Conditions,WindDirDegrees,DateUTC
12:56 AM,57.0,16.0,20,29.86,10.0,NNE,16.1,24.2,N/A,,Clear,30,2012-10-10 07:56:00
1:56 AM,55.0,16.0,22,29.88,10.0,East,6.9,-,N/A,,Clear,80,2012-10-10 08:56:00
2:56 AM,50.0,14.0,24,29.89,10.0,ESE,4.6,-,N/A,,Clear,110,2012-10-10 09:56:00
3:56 AM,45.0,15.1,30,29.91,10.0,Calm,Calm,-,N/A,,Clear,0,2012-10-10 10:56:00
4:56 AM,43.0,18.0,37,29.92,10.0,SSE,8.1,-,N/A,,Clear,150,2012-10-10 11:56:00
5:56 AM,41.0,12.9,32,29.96,10.0,SE,3.5,-,N/A,,Clear,130,2012-10-10 12:56:00
6:56 AM,44.1,15.1,31,29.96,10.0,Calm,Calm,-,N/A,,Partly Cloudy,0,2012-10-10 13:56:00
7:56 AM,39.9,14.0,35,29.99,9.0,ESE,4.6,-,N/A,,Clear,110,2012-10-10 14:56:00
8:56 AM,51.1,16.0,25,29.98,10.0,ESE,3.5,-,N/A,,Clear,110,2012-10-10 15:56:00
9:56 AM,60.1,16.0,18,29.96,10.0,ENE,4.6,-,N/A,,Clear,70,2012-10-10 16:56:00
10:56 AM,64.9,17.1,16,29.94,10.0,Calm,Calm,-,N/A,,Clear,0,2012-10-10 17:56:00
11:56 AM,70.0,19.0,14,29.91,10.0,Variable,3.5,-,N/A,,Clear,0,2012-10-10 18:56:00
12:56 PM,73.0,21.9,15,29.87,10.0,NE,4.6,-,N/A,,Clear,50,2012-10-10 19:56:00
1:56 PM,73.0,21.0,14,29.85,10.0,Variable,4.6,-,N/A,,Clear,0,2012-10-10 20:56:00
2:56 PM,75.9,21.0,13,29.83,10.0,NNW,6.9,-,N/A,,Clear,340,2012-10-10 21:56:00
3:56 PM,75.9,21.0,13,29.82,10.0,NW,6.9,-,N/A,,Clear,310,2012-10-10 22:56:00
4:56 PM,75.0,21.0,13,29.83,10.0,NW,3.5,-,N/A,,Clear,310,2012-10-10 23:56:00
5:56 PM,72.0,21.0,15,29.83,10.0,NW,3.5,-,N/A,,Clear,320,2012-10-11 00:56:00
6:56 PM,63.0,21.0,20,29.85,10.0,NNE,3.5,-,0.00,,Clear,30,2012-10-11 01:56:00
7:56 PM,50.0,17.1,27,29.90,10.0,West,4.6,-,N/A,,Clear,260,2012-10-11 02:56:00
8:56 PM,46.9,16.0,29,29.88,10.0,West,4.6,-,N/A,,Clear,280,2012-10-11 03:56:00
9:56 PM,44.1,15.1,31,29.87,10.0,Calm,Calm,-,N/A,,Clear,0,2012-10-11 04:56:00
10:56 PM,41.0,15.1,35,29.88,10.0,South,6.9,-,0.01,,Clear,170,2012-10-11 05:56:00
11:56 PM,50.0,19.9,31,29.86,10.0,SE,10.4,-,N/A,,Clear,130,2012-10-11 06:56:00